www.pogodaiklimat.ru

Погода и климат >> Архив погоды >> Украина >> Гайсин


ПОГОДА в Гайсине

  • Прогноз погоды в Гайсине
  • Монитор погоды в Гайсине
  • Климат города

АРХИВ ПОГОДЫ в Гайсине

Время (UTC), дата Ветер
(напр.,м/с)
 
Видим.   Явления Облачность Т
(С)
Тd
(С)
f
(%)
Тe
(С)
Тes
(С)
Комфортность P
(гПа)
Po
(гПа)
Тmin
(С)
Tmax
(С)
R
(мм)
R24
(мм)
S
(см)
00 17.06 С 3 4000 м в посл. час ливневой дождь 10/5 600 м
[Cb cap Ac und]
+18.9 +18.1 95 +21 +21 комфорт 1011.9 1012.0 1.0
03 17.06 С 2 4000 м дымка 10 баллов +18.7 +18.0 96 +20 +20 1012.0 987.4
06 17.06 В 3 4000 м дымка 10/0
[Ac und]
+20.2 +19.2 94 +24 +26 комфорт 1011.1 1011.0 +18.6 1
09 17.06 С 3 10 км 10 баллов +25.2 +19.3 70 +30 +30 душно 1011.0 987.0
12 17.06 С 3 10 км 10/6 600 м
[Cb cap Ac und]
+26.5 +18.9 63 +32 +33 очень
душно
1010.3 1010.0
15 17.06 С 4 4000 м гроза, ливневой дождь 10 баллов +19.3 +17.8 91 +21 +21 комфорт 1011.0 986.5
18 17.06 С 2 4000 м дымка {гроза, ливн. осадки} 10/4 600 м
[Cb calv Ac trans Ci fib]
+18.5 +17.7 95 +20 +20 1013.1 1013.0 +26.7 9
21 17.06 С 2 4000 м дымка ясно +17.2 +16.6 96 +18 +18 1013.0 1005.0
00 18.06 С 3 4000 м дымка 3/0
[Ac trans]
+17.0 +16.0 94 +17 +17 1013.2 1013.0
03 18.06 С 2 4000 м дымка 10 баллов +16.8 +16.2 96 +17 +17 1013.0 988.2
06 18.06 С 1 10 км 8/0
[Ac trans Ci fib]
+21.5 +17.8 79 +26 +32 душно 1012.9 1013.0 +16.6
09 18.06 С 2 10 км 3 балла +25.8 +14.9 51 +29 +41 душно 1014.0 989.9
12 18.06 СВ 2 10 км 4/3 600 м
[Cu med, cong Ci fib]
+27.5 +13.7 43 +30 +40 жарко 1012.5 1013.0
15 18.06 СВ 3 10 км 3 балла +27.4 +14.1 44 +30 +32 жарко 1012.0 1004.1
18 18.06 СВ 2 10 км ясно +24.6 +15.5 57 +28 +28 душно 1011.8 1012.0 +27.7
21 18.06 СВ 1 10 км ясно +19.7 +16.0 79 +23 +23 комфорт 1014.0 989.4
00 19.06 штиль 0 4000 м дымка ясно +16.4 +14.9 91 +16 +16 1014.8 1015.0
03 19.06 штиль 0 4000 м дымка ясно +14.8 +13.8 94 +14 +15 1016.0 1007.5
06 19.06 штиль 0 10 км ясно +22.2 +15.9 67 +26 +37 душно 1015.5 1016.0 +14.6
09 19.06 СВ 2 10 км ясно +26.3 +14.7 49 +29 +46 жарко 1016.0 991.9
12 19.06 С 3 10 км 6/6 1000 м
[Cu med, cong]
+28.0 +16.0 48 +31 +36 душно 1016.6 1017.0
15 19.06 С 2 10 км 6 баллов +28.6 +15.8 46 +32 +34 душно 1016.0 992.1
18 19.06 С 1 10 км 4/3 600 м
[Sc diur, vesp Ci fib]
+26.8 +18.9 62 +32 +32 очень
душно
1016.0 1016.0 +28.8
21 19.06 штиль 0 10 км ясно +21.2 +18.8 86 +26 +26 душно 1017.0 992.5
00 20.06 штиль 0 4000 м дымка ясно +19.4 +18.0 92 +21 +21 комфорт 1017.7 1018.0
03 20.06 штиль 0 4000 м дымка 3 балла +18.3 +17.1 93 +19 +19 1018.0 993.2
06 20.06 С 2 10 км 3/0
[Ci fib]
+24.5 +16.7 62 +28 +36 душно 1018.5 1019.0 +18.1
09 20.06 С 3 10 км 3 балла +27.6 +15.3 47 +30 +40 жарко 1019.0 995.0
12 20.06 СЗ 4 10 км 5/5 600 м
[Cu med, cong]
+28.2 +14.7 44 +31 +36 душно 1018.7 1019.0
15 20.06 З 3 10 км 3 балла +27.8 +13.7 42 +30 +33 жарко 1018.0 994.0
18 20.06 З 1 10 км 4/0
[Ci fib]
+24.4 +15.7 58 +27 +27 жарко 1018.2 1018.0 +28.4
21 20.06 штиль 0 10 км ясно +19.3 +15.8 80 +21 +21 комфорт 1019.0 994.3
00 21.06 штиль 0 10 км дымка ясно +16.9 +15.7 93 +17 +17 1019.2 1019.0
03 21.06 штиль 0 4000 м дымка ясно +16.2 +15.1 93 +16 +17 1019.0 994.0
06 21.06 штиль 0 10 км 3/0
[Ci fib]
+23.0 +15.9 64 +27 +37 душно 1018.5 1019.0 +16.0
09 21.06 ЮЗ 2 10 км 10 баллов +26.4 +13.8 46 +29 +29 жарко 1017.0 992.9
12 21.06 ЮЗ 2 10 км 10/6 600 м
[Cu med, cong Ci fib]
+28.7 +14.5 42 +31 +36 жарко 1014.8 1015.0
15 21.06 ЮВ 2 10 км 10 баллов +27.8 +14.8 45 +30 +30 жарко 1013.0 989.1
18 21.06 ЮВ 1 10 км 10/0
[Cs]
+25.6 +16.2 56 +29 +29 душно 1012.6 1013.0 +29.1
21 21.06 штиль 0 10 км ясно +20.8 +17.2 80 +24 +24 комфорт 1012.0 987.6
00 22.06 В 1 10 км ясно +19.3 +15.8 80 +22 +22 комфорт 1010.9 1011.0
03 22.06 В 1 10 км 10 баллов +18.4 +15.3 82 +20 +20 1011.0 986.4
06 22.06 ЮВ 1 10 км 10/0
[Ac cast Cs]
+23.9 +17.5 67 +28 +34 душно 1009.6 1010.0 +18.2
09 22.06 Ю 2 10 км 3 балла +29.2 +17.7 50 +34 +46 очень
душно
1008.0 984.4
12 22.06 ЮЗ 3 10 км гроза без осадков 10/8 600 м
[Cb calv Ac und]
+28.6 +17.2 50 +33 +33 очень
душно
1007.0 1007.0
15 22.06 СЗ 4 10 км 10 баллов +21.7 +16.9 74 +26 +26 душно 1008.0 983.8
18 22.06 СЗ 4 10 км {гроза, ливн. осадки} 10/8 600 м
[Cb calv Ac und]
+17.0 +13.6 80 +17 +17 1009.1 1009.0 +29.4 0.7
21 22.06 С 3 4000 м ливневой дождь 10 баллов +14.8 +13.0 89 +14 +14 1010.0 1018.0
00 23.06 С 2 4000 м {гроза} 10/0
[Ac und]
+14.7 +13.0 90 +14 +14 1009.6 1010.0 4.0
03 23.06 СЗ 2 4000 м 10 баллов +14.1 +12.3 89 +14 +14 1009.0 984.1
06 23.06 СЗ 2 4000 м дымка 10/0
[Ac und]
+13.6 +12.8 95 +13 +15 1008.7 1009.0 +13.4 4
09 23.06 СЗ 3 4000 м дымка 10 баллов +13.6 +12.3 92 +12 +12 1010.0 985.0
12 23.06 З 4 10 км 10/10 750 м
[Sc]
+13.4 +11.1 86 +12 +12 1010.2 1010.0
15 23.06 З 3 10 км 10 баллов +12.9 +10.6 86 +11 +11 1011.0 985.9
18 23.06 ЮЗ 2 4000 м 10 баллов +11.9 +10.0 88 +11 +11 1012.0 986.8 +13.8 0.7
21 23.06 З 2 4000 м дымка ясно +9.8 +8.7 93 +8 +8 1014.0 988.5

 

Местоположение метеостанции Гайсин (Винницкая область, Украина): широта 48.80 долгота 29.40 высота над уровнем моря 211 м.

В архиве по умолчанию представлена погода в Гайсине за последнюю неделю. Архивные данные за месяц целиком и за предыдущие месяцы, начиная с января 2011 года, Вы можете получить, выбрав интересующий диапазон дат из раскрывающегося списка и нажав кнопку "Ввод!".


*Определитесь, кто Вы:
робот инопланетянин человек

Внимание! Время в таблицах - всемирное. Для получения местного времени необходимо прибавить поправку, которая в Гайсине равна 2 ч.

Смотрите также архив погоды в соседних городах и на ближайших метеорологических станциях:

Погода в Гайвороне (Кировоградская область, Украина) (61 км)
Погода в Умани (Черкасская область, Украина) (61 км)
Погода в Жашкове (Черкасская область, Украина) (71 км)
Погода в Виннице (Винницкая область, Украина) (75 км)
Погода в Жмеринке (Винницкая область, Украина) (99 км)
Погода в Каменке (Молдова) (100 км)
Погода в Сороках (Молдова) (105 км)
Погода в Звенигородке (Черкасская область, Украина) (114 км)
Погода в Белой Церкви (Киевская область, Украина) (118 км)
Погода в Рыбнице (Молдова) (118 км)

Пояснения к столбцам:

Ветер - указаны скорость ветра в м/с - средняя за 10 мин, порывы в срок и между сроками (в фигурных скобках) и направление, откуда дует ветер: С - северный, СВ - северо-восточный, В - восточный, ЮВ - юго-восточный, Ю - южный, ЮЗ - юго-западный, З - западный, СЗ - северо-западный.
Видимость - горизонтальная дальность видимости в метрах или километрах. При видимости от 1 до 10 км при отсутствии осадков обычно наблюдается дымка, при ухудшении видимости до 1 км и менее - туман. В сухую погоду видимость может ухудшаться дымом, пылью или мглою.
Явления - указаны атмосферные явления, наблюдавшиеся в срок или в последний час перед сроком; фигурными скобками обозначены явления, наблюдавшиеся между сроками (за 1-3 часа до срока); квадратными скобками обозначены град или гололедные отложения с указанием их диаметра в мм.
Облачность - указаны через наклонную черту общая и нижняя облачность в баллах и высота нижней границы облаков в метрах; квадратными скобками обозначены формы облаков: Ci - перистые, Cs - перисто-слоистые, Cc - перисто-кучевые, Ac - высококучевые, As - высокослоистые, Sc - слоисто-кучевые, Ns - слоисто-дождевые, Cu - кучевые, Cb - кучево-дождевые. Подробнее классификацию облаков см. в Атласе облаков (PDF).
T - Температура воздуха - температура, измеренная на высоте 2 м над землей.
Td - Температура точки росы - температура, при понижении до которой содержащийся в воздухе водяной пар достигнет насыщения.
f - Относительная влажность воздуха - влажноcть воздуха, измеренная на высоте 2 м над землей.
Te - Эффективная температура - температура, которую ощущает одетый по сезону человек в тени. Характеристика душности погоды. При расчете учитывается влияние влажности воздуха и скорости ветра на теплоощущения человека.
Tes - Эффективная температура на солнце - температура, которую ощущает человек, с поправкой на солнечный нагрев. Характеристика знойности погоды. Зависит от высоты солнца над горизонтом, облачности и скорости ветра. Ночью, в пасмурную погоду, а также при ветре 12 м/с и более поправка равна нулю.
P - Атмосферное давление - приведенное к уровню моря атмосферное давление.
Po - Атмосферное давление - измеренное на уровне метеостанции атмосферное давление.
Tmin - Минимальная температура - минимум температуры воздуха на высоте 2 м над землей.
Tmax - Максимальная температура - максимум температуры воздуха на высоте 2 м над землей.
R - Количество осадков - Количество выпавших осадков за период времени, мм. При наведении курсора мыши на число - период времени, за который выпало указанное количество осадков.
R24 - Количество осадков - Количество выпавших осадков за 24 часа, мм.
S - Снежный покров - Высота снежного покрова, см. При наведении курсора мыши на число - состояние снежного покрова и степень покрытия местности в баллах.